Location: Newark
(27.9675°N, 86.8869°E)
Time: 23:04:54
(UTC+00:00)

SR - Pass Details

Date: 29 October 2019
Orbit: 573 x 882 km, 66.7° (Epoch: 22 November)

Event Time Altitude Azimuth Distance (km) Brightness Sun altitude
Rises 12:32:18 0° 175° (S) 2,944 ? -14.1°
Reaches altitude 10° 12:34:47 10° 163° (SSE) 2,087 ? -14.7°
Maximum altitude 12:38:44 26° 106° (ESE) 1,358 ? -15.5°
Enters shadow 12:39:31 25° 91° (E) 1,409 ? -15.7°
Drops below altitude 10° 12:42:59 10° 50° (NE) 2,265 - -16.5°
Sets 12:45:48 0° 39° (NE) 3,252 - -17.1°
